Location: Unspecified
(0.0000°N, 0.0000°E)
Time: 02:51:01
(UTC+00:00)

CZ-3B DEB - Pass Details

Date: 18 February 2026
Orbit: 716 x 41326 km, 26.5° (Epoch: 4 March)

Event Time Altitude Azimuth Distance (km) Brightness Sun altitude
Exits shadow 23:54:32 62° 105° (ESE) 12,113 ? -77.7°
Maximum altitude 05:07:40 61° 174° (S) 42,023 ? -16.2°
Drops below altitude 10° 11:21:26 10° 75° (ENE) 5,025 ? 72.8°
Sets 11:23:28 0° 73° (ENE) 5,417 ? 73.2°
